User: anonymous   Login
Location: Caltech
(34.1382°N, 118.1253°W)
Time: 07:59:55
(UTC-07:00)
Language:

Meteor 1-11 Rocket - Orbit

View from above orbital plane
View from above orbital plane
View from above satellite
View from above satellite

Ground track
Ground track

The orbit data is extracted from the following two-line orbital elements,

1 05918U 72022B   16145.54191055 -.00000151  00000-0 -98319-4 0  9996
2 05918  81.2363 341.8327 0057978 340.2607  19.6317 14.05803053263393
Epoch (UTC): 24 May 2016 13:00:21
Eccentricity: 0.0057978
inclination: 81.2363°
perigee height: 832 km
apogee height: 916 km
right ascension of ascending node: 341.8327°
argument of perigee: 340.2607°
revolutions per day: 14.05803053
mean anomaly at epoch: 19.6317°
orbit number at epoch: 26339

The dashed part of the orbit path shows where the satellite is in the earth's shadow,  

DLR